Other Public Products
Issued by NWS Grand Forks, ND

Home | Current Version | Previous Version | Text Only | Print | Product List | Glossary On
Versions: 1 2 3 4 5 6 7 8 9 10 11 12 13 14 15 16 17 18 19 20 21 22 23 24 25 26 27 28 29 30 31 32 33 34 35 36 37 38 39 40 41 42 43 44 45 46 47 48 49 50
000
FPUS83 KFGF 251431
OPUFGF
PRAIRIE TO PINES WEATHER ROUNDUP
NATIONAL WEATHER SERVICE EASTERN NORTH DAKOTA/GRAND FORKS ND
900 AM CDT TUE JUL 25 2017

 **SATELLITE DATA USED TO AUGMENT SKY COVER AT AUTOMATED STATIONS**
 *****  WEATHER ACROSS EASTERN NORTH DAKOTA  *****

CITY           SKY/WX    TMP DP  RH WIND       PRES   REMARKS
GRAND FORKS    CLOUDY    70  67  90 S9        29.85F
GRAND FORKS AF CLOUDY    70  66  88 S9        29.87S
GRAND CITY NWS NOT AVBL
BUXTON           N/A     71  69  96 S7          N/A
DEVILS LAKE    FAIR      71  67  87 CALM      29.88S
FARGO          NOT AVBL
WAHPETON ARPT  PTSUNNY   72  64  78 S8        29.90R
$$

 *****  WEATHER ACROSS CENTRAL AND WESTERN NORTH DAKOTA  *****

CITY           SKY/WX    TMP DP  RH WIND       PRES   REMARKS
JAMESTOWN      FAIR      70  66  87 W5        29.91R
BISMARCK       FAIR      71  67  87 N8        29.93F
MINOT          FAIR      68  46  45 W9        29.94R
MINOT AFB      FAIR      66  46  48 NW17      29.92S
GARRISON         N/A     72  50  45 NW6       29.96R
WILLISTON      FAIR      69  44  40 N13       30.00R
DICKINSON      FAIR      71  51  49 N13       30.00R
HETTINGER      PTSUNNY   65  59  81 NE12      29.94S
$$

 *****  OTHER OBSERVATIONS NORTHEAST NORTH DAKOTA  *****

CITY           SKY/WX    TMP DP  RH WIND       PRES   REMARKS
WALHALLA       NOT AVBL
LANGDON        FAIR      68  68 100 CALM      29.86F
CAVALIER       FAIR      70  68  94 S7        29.82F
GRAFTON        FAIR      72  68  88 S9G15     29.87S
CANDO          NOT AVBL
FORT TOTTEN      N/A     70  66  87 S2        29.95S
ROLLA            N/A     63  50  63 NW10G18   29.90S
RUGBY          NOT AVBL
 ***** THE ABOVE OBSERVATIONS ARE NON NWS ARE NOT QUALITY
        CONTROLLED AND MAY MIS-REPORT RAIN FOR SNOW...
$$

 *****  OTHER OBSERVATIONS SOUTHEAST NORTH DAKOTA *****

CITY           SKY/WX    TMP DP  RH WIND       PRES   REMARKS
COOPERSTOWN    FAIR      70  68  94 S5        29.90S
VALLEY CITY    FAIR      70  70 100 SW3       29.92R
OAKES          NOT AVBL
GWINNER        SUNNY     72  66  83 CALM      29.89S
SHEYENNE NWR     N/A     73  69  86 SE3       29.95S
BUFFALO          N/A     69  65  87 NE2         N/A
WYNDMERE       NOT AVBL
 ***** THE ABOVE OBSERVATIONS ARE NON NWS ARE NOT QUALITY
       CONTROLLED AND MAY MIS-REPORT RAIN FOR SNOW...
$$

  *****  WEATHER ACROSS NORTHERN MINNESOTA  *****

CITY           SKY/WX    TMP DP  RH WIND       PRES   REMARKS
FLAG ISLAND    FAIR      68  64  88 S10G18    29.87F
WARROAD        NOT AVBL
ROSEAU         FAIR      68  63  83 S10       29.89S
HALLOCK        FAIR      70  66  88 S9        29.84F
THF RVR FALLS  CLOUDY    70  65  84 S8        29.90F
HALSTAD          N/A     72  66  82 S12         N/A
FOSSTON        FAIR      70  63  78 S8        29.91F
BAUDETTE       FAIR      69  63  81 S13       29.91F
WASKISH        CLOUDY    72  64  78 S3        29.94S
CROOKSTON      FAIR      70  66  88 S8        29.88F
$$
  *****  WEATHER ACROSS CENTRAL AND WEST MINNESOTA  *****

CITY           SKY/WX    TMP DP  RH WIND       PRES   REMARKS
BEMIDJI        PTSUNNY   70  64  80 S8        29.95R
PARK RAPIDS    CLOUDY    70  64  81 SE12      29.94S
WADENA         CLOUDY    70  64  83 S9        29.93F
DETROIT LAKES  FAIR      70  64  83 S9        29.93F
MOORHEAD       PTSUNNY   72  64  78 S12       29.90S
FERGUS FALLS   FAIR      72  64  78 S12       29.91R
ELBOW LAKE     PTSUNNY   73  67  82 S14       29.91R
MORRIS MN      FAIR      73  66  78 S17       29.89R
STAPLES        CLOUDY    68  63  83 S10G16    29.94S
WHEATON        FAIR      73  66  78 S9        29.90R
$$
  *****  WEATHER ELSEWHERE ACROSS MINNESOTA  *****

CITY           SKY/WX    TMP DP  RH WIND       PRES   REMARKS
DULUTH         FAIR      65  61  87 SE12      30.02F
INTRNTL FALLS  FAIR      67  60  78 S6        29.96S
ELY            FAIR      68  59  73 S8G18     30.03R
CLOQUET        PTSUNNY   66  61  82 SE7       30.01F
BRAINERD       CLOUDY    70  64  81 S9        29.96S
HIBBING        FAIR      65  62  90 VRB5      30.01R
ALEXANDRIA     CLOUDY    70  65  84 S16       29.93S
SAINT CLOUD    FAIR      71  66  84 SE14G22   29.95F
MINNEAPOLIS    CLOUDY    69  62  78 S20       30.00F
$$

  *****  WEATHER ACROSS SOUTH DAKOTA  *****

CITY           SKY/WX    TMP DP  RH WIND       PRES   REMARKS
SIOUX FALLS    FAIR      76  70  82 S17       29.91F
BROOKINGS      FAIR      74  68  81 S14       29.89F
WATERTOWN      FAIR      72  68  87 S12       29.88R
HURON          FAIR      77  70  79 S7        29.85R
SISSETON         N/A     72  68  87 S8        29.87R
ABERDEEN       FAIR      71  68  90 NW5       29.88R
MITCHELL       FAIR      80  69  69 S8        29.85S
PIERRE         FAIR      74  64  71 NE8       29.82F
MOBRIDGE       FAIR      73  67  81 N12       29.86R
RAPID CITY     FAIR      77  60  55 N7        29.96R
$$

  *****  SOME WEATHER IN NEARBY STATES *****

CITY           SKY/WX    TMP DP  RH WIND       PRES   REMARKS
GLASGOW MT     FAIR      62  46  55 NW8       30.06R
GREAT FALLS MT FAIR      56  39  53 NW6       30.18S
CHEYENNE WY    FAIR      76  45  33 NW8       30.13R
SCOTTSBLUFF NE FAIR      74  59  59 E7        29.96S
OMAHA NE       FAIR      78  66  66 S21       30.02S
DES MOINES IA  FAIR      74  67  78 SE12      30.08F
DAVENPORT IA   FAIR      69  63  81 SE9       30.18S
CHICAGO IL     FAIR      72  58  61 S10       30.20R
EAU CLAIRE WI  FAIR      66  59  78 S9G17     30.10S
LA CROSSE WI   FAIR      69  61  75 S9        30.13F
$$

  *****  SOME NATIONAL WEATHER *****

CITY           SKY/WX    TMP DP  RH WIND       PRES   REMARKS
LA GUARDIA NY  CLOUDY    67  61  81 NE13      30.06R
RALEIGH NC     PTSUNNY   84  69  60 NE8       30.07R
ATLANTA GA     PTSUNNY   77  72  84 W6        30.12R
NEW ORLEANS LA FAIR      83  77  82 SW9       30.14R HX  92
OKLAHOMA CITY  FAIR      81  71  71 S13       30.08S
ALBUQUERQUE NM PTSUNNY   71  61  70 S10       30.24R
SALT LAKE CITY LGT RAIN  69  62  78 SE6       30.10S
LOS ANGELES CA CLOUDY    68  64  87 W7        29.96R
BOISE ID       PTSUNNY   73  48  41 E3        29.96R
SEATTLE WA     FAIR      64  52  64 NE5       30.03S
$$

*** WEATHER ACROSS MANITOBA...SASKATCHEWAN AND ONTARIO ***
                ***ONTARIO***

CITY           SKY/WX    TMP DP  RH WIND       PRES   REMARKS
GERALDTON      PTSUNNY   70  55  60 S12       30.04F
THUNDER BAY    CLOUDY    66  57  72 NE5       30.06F
SIOUX LOOKOUT  PTSUNNY   68  61  77 S8        29.94F
TORONTO        PTSUNNY   64  52  63 N9        30.18S
BIG TROUT LK   CLOUDY    66  63  88 S18G24    29.72F
PICKLE LAKE    LGT RAIN  68  59  73 S18       29.90R
DRYDEN         PTSUNNY   66  61  82 S10G22    29.92F
KENORA         CLOUDY    66  63  88 S12G20    29.86R
$$
                *** MANITOBA***

CITY           SKY/WX    TMP DP  RH WIND       PRES   REMARKS
BRANDON        MOSUNNY   61  52  72 W18G25    29.84S
DAUPHIN        SUNNY     66  54  63 W21G31    29.74S
ISLAND LAKE    MOSUNNY   70  64  83 SW7       29.62F
PILOT MOUND      N/A     63  57  82 W8          N/A
THE PAS        MOSUNNY   61  55  82 W5        29.58S
THOMPSON       MOSUNNY   59  55  88 SW3       29.55S
WINNIPEG       PTSUNNY   68  66  94 SW9       29.80S
LYNN LAKE      CLOUDY    61  57  88 N9        29.61R
CHURCHILL      CLOUDY    52  48  87 E9        29.65F
GILLAM         FOG       63  63 100 NE2       29.54F VSB 1/8
$$
                ***SASKATCHEWAN***

CITY           SKY/WX    TMP DP  RH WIND       PRES   REMARKS
ESTEVAN        MOSUNNY   61  50  67 NW17      29.96R
KINDERSLEY     MOSUNNY   57  50  77 NW13      30.02R
LLOYDMINSTER   PTSUNNY   57  54  88 W12       29.99R
PRINCE ALBERT  PTSUNNY   61  57  88 NW12G20   29.78R
REGINA         PTSUNNY   59  50  72 W17G25    29.94R
YORKTON        CLOUDY    63  55  77 W13       29.78S



USA.gov is the U.S. government's official web portal to all federal, state and local government web resources and services.